Location: The Saddle
(36.8333°N, 80.3417°W)
Time: 14:30:46
(UTC-05:00)

X-37B - Pass Details

Date: 03 December 2023
Orbit: 277 x 277 km, 45.0° (Epoch: 01 November)

Event Time Altitude Azimuth Distance (km) Brightness Sun altitude
Rises 18:02:07 0° 285° (WNW) 1,912 5.1 -11.3°
Reaches altitude 10° 18:04:34 10° 313° (NW) 1,100 3.3 -11.8°
Maximum altitude 18:06:03 15° 350° (N) 895 2.3 -12.1°
Enters shadow 18:06:53 13° 13° (NNE) 965 2.3 -12.2°
